STARLINK-4549 (53433 NORAD) Tracking and Keplerian Element Data

This shows tracking and keplerian element data for the satellite.

Feedback or suggestion? Click here.




ElementValue
Catalog53433
NameSTARLINK-4549
Epoch Orbit130
Epoch Day324.91667824
Epoch Year2022
RAAN112.5496
Inclination53.2149
Eccentricity0.0001337
Argument of Perigee92.1828
Mean Anonmoly282.3348
Mean Motion15.08833255
Decay Rate-4.153E-05
L11 53433U 22097AX 22324.91667824 -.00004153 00000+0 -24302-3 0 9992
L22 53433 53.2149 112.5496 0001337 92.1828 282.3348 15.08833255 1300



Live tracking and technical data element details for STARLINK-4549 (NORAD 53433). STARLINK-4549 can be tracked NOW for your location showing map with azimuth and elevation plus other details from your city location.







IsCatalogInMostPopularTable: catalog: 53433, numindb: 9
Update: records affected: 1



GetName: 53433 STARLINK-4549

Hit Count: updated at: Thu, 08 Dec 2022 18:44:18 GMT